ZF1RC George Town KY current weather conditions

sailwx.info

Wind from 070 at 4 knots gusting 5

Air temperature 28.3° C
Dewpoint 20.9° C

Last reported at 2014-Oct-31 19:50 UTC.
Time now 2014-Nov-01 03:17 UTC

Location: N 19°16' W 081°23'.
View on Google Maps.

See reports from other nearby stations

  
Tides and Currents Weather Stations Pressure Air Temp Water Temp Dewpoint Dewpoint Depression Visibility Wind Speed Wind Dir Waves Ship Positions
date/time (UTC)wind fromknots sea level pressurealtimeterstation pressurevisibilityair tempwater tempwave heightnotes
2014-Oct-31 19:50 070 4 gusting 5 28.3
2014-Oct-31 19:40 034 3 gusting 5 28.3
2014-Oct-31 19:30 021 3 gusting 6 27.8
2014-Oct-31 19:20 035 4 gusting 6 28.3
2014-Oct-31 19:10 066 7 gusting 7 28.3
2014-Oct-31 19:00 337 2 gusting 6 28.9
2014-Oct-31 18:50 049 3 gusting 6 28.3
2014-Oct-31 18:40 015 6 gusting 6 28.3
2014-Oct-31 18:30 015 4 gusting 7 28.3
2014-Oct-31 18:20 057 3 gusting 6 28.3
2014-Oct-31 18:10 28.3
2014-Oct-31 18:00 026 4 gusting 10 28.3
2014-Oct-31 17:50 045 5 gusting 6 28.3
2014-Oct-31 17:40 030 3 gusting 6 28.3
2014-Oct-31 17:30 059 7 gusting 7 28.3
2014-Oct-31 17:20 045 5 gusting 7 28.3
2014-Oct-31 17:10 044 5 gusting 7 28.3
2014-Oct-31 17:00 099 2 gusting 6 28.9
2014-Oct-31 16:50 044 2 gusting 5 28.9
2014-Oct-31 16:40 051 3 gusting 6 28.9
2014-Oct-31 16:30 017 6 gusting 6 28.9
2014-Oct-31 16:20 016 4 gusting 6 28.9
2014-Oct-31 16:10 048 2 gusting 6 28.9
2014-Oct-31 16:00 025 4 gusting 7 28.9
2014-Oct-31 15:50 056 3 gusting 6 28.3
2014-Oct-31 15:40 051 6 gusting 7 28.9
2014-Oct-31 15:30 010 2 gusting 6 28.3
2014-Oct-31 15:20 017 3 gusting 7 28.3
2014-Oct-31 15:10 050 4 gusting 6 28.3
2014-Oct-31 15:00 27.8
2014-Oct-31 14:50 054 4 gusting 6 27.8
2014-Oct-31 14:40 055 4 gusting 6 27.8
2014-Oct-31 14:30 098 1 gusting 5 27.2
2014-Oct-31 14:20 062 4 gusting 6 26.7
2014-Oct-31 14:10 055 2 gusting 4 26.7
2014-Oct-31 14:00 022 26.7
2014-Oct-31 13:50 031 1 gusting 1 26.7
2014-Oct-31 13:40 043 2 gusting 4 26.7
2014-Oct-31 13:30 051 0 gusting 4 26.1
2014-Oct-31 13:20 26.1
2014-Oct-31 13:10 042 1 gusting 2 26.1
2014-Oct-31 13:00 041 1 gusting 2 26.1
2014-Oct-31 12:50 26.1
2014-Oct-31 12:40 015 1 gusting 2 25.6
2014-Oct-31 12:30 340 1 gusting 1 25.6
2014-Oct-31 12:20 010 1 gusting 1 25.0
2014-Oct-31 12:10 027 2 gusting 2 25.0
2014-Oct-31 12:00 027 24.4
2014-Oct-31 11:50 010 0 gusting 1 24.4
2014-Oct-31 11:40 019 1 gusting 2 23.9
2014-Oct-31 11:30 017 1 gusting 1 23.9
2014-Oct-31 11:20 029 0 gusting 1 23.9
2014-Oct-31 11:10 23.9
2014-Oct-31 11:00 026 1 gusting 1 23.9
2014-Oct-31 10:50 035 1 gusting 1 23.9
2014-Oct-31 10:40 014 1 gusting 1 24.4
2014-Oct-31 10:30 012 1 gusting 2 23.9
2014-Oct-31 10:20 020 2 gusting 2 23.9
2014-Oct-31 10:10 027 1 gusting 1 23.9
2014-Oct-31 10:00 031 1 gusting 2 23.3
2014-Oct-31 09:50 015 0 gusting 1 23.3
2014-Oct-31 09:40 021 0 gusting 0 23.3
2014-Oct-31 09:30 021 0 gusting 0 23.3
2014-Oct-31 09:20 055 23.3
2014-Oct-31 09:10 038 0 gusting 0 23.9
2014-Oct-31 09:00 059 1 gusting 1 23.9
2014-Oct-31 08:50 087 0 gusting 0 23.9
2014-Oct-31 08:40 043 0 gusting 1 23.9
2014-Oct-31 08:30 027 0 gusting 1 23.9
2014-Oct-31 08:20 020 0 gusting 1 23.9
2014-Oct-31 08:10 052 0 gusting 0 23.9
2014-Oct-31 08:00 017 0 gusting 1 23.9
2014-Oct-31 07:50 021 1 gusting 1 23.3
2014-Oct-31 07:40 020 0 gusting 0 23.3
2014-Oct-31 07:30 013 0 gusting 0 23.3
2014-Oct-31 07:20 035 22.8
2014-Oct-31 07:10 058 23.3
2014-Oct-31 07:00 039 23.3
2014-Oct-31 06:50 041 23.9
2014-Oct-31 06:40 058 23.9
2014-Oct-31 06:30 032 23.9
2014-Oct-31 06:20 026 24.4
2014-Oct-31 06:10 041 0 gusting 1 24.4
2014-Oct-31 06:00 061 0 gusting 1 24.4
2014-Oct-31 05:50 030 0 gusting 1 24.4
2014-Oct-31 05:40 066 24.4
2014-Oct-31 05:30 054 1 gusting 1 24.4
2014-Oct-31 05:20 026 0 gusting 1 24.4
2014-Oct-31 05:10 049 2 gusting 2 24.4
2014-Oct-31 05:00 043 0 gusting 0 24.4
2014-Oct-31 04:50 079 0 gusting 1 24.4
2014-Oct-31 04:40 057 0 gusting 0 24.4
2014-Oct-31 04:30 090 0 gusting 0 24.4
2014-Oct-31 04:20 074 0 gusting 1 24.4
2014-Oct-31 04:10 095 0 gusting 0 24.4
2014-Oct-31 04:00 102 0 gusting 0 24.4
2014-Oct-31 03:50 083 0 gusting 1 24.4
2014-Oct-31 03:40 078 0 gusting 1 24.4
2014-Oct-31 03:30 057 0 gusting 0 24.4
2014-Oct-31 03:20 031 24.4
2014-Oct-31 03:10 042 0 gusting 1 24.4
2014-Oct-31 03:00 067 0 gusting 0 24.4
2014-Oct-31 02:50 104 1 gusting 1 24.4
2014-Oct-31 02:40 124 1 gusting 2 24.4
2014-Oct-31 02:30 108 1 gusting 1 24.4
2014-Oct-31 02:20 090 0 gusting 1 24.4
2014-Oct-31 02:10 097 1 gusting 1 24.4
2014-Oct-31 02:00 107 0 gusting 1 24.4
2014-Oct-31 01:50 102 1 gusting 1 24.4
2014-Oct-31 01:40 102 0 gusting 0 24.4
2014-Oct-31 01:30 121 0 gusting 0 25.0
2014-Oct-31 01:20 068 1 gusting 1 25.0
2014-Oct-31 01:10 107 0 gusting 0 25.0
2014-Oct-31 01:00 105 0 gusting 1 25.0
2014-Oct-31 00:50 101 1 gusting 1 25.0
2014-Oct-31 00:40 083 0 gusting 1 25.0
2014-Oct-31 00:30 076 1 gusting 1 25.0
2014-Oct-31 00:20 055 0 gusting 1 25.6
2014-Oct-31 00:11 090 0 gusting 1 25.6
2014-Oct-31 00:00 118 0 gusting 2 25.6
2014-Oct-30 23:50 103 0 gusting 2 25.6
2014-Oct-30 23:40 066 1 gusting 2 25.6
2014-Oct-30 23:30 134 1 gusting 1 25.6
2014-Oct-30 23:20 122 1 gusting 4 26.1
2014-Oct-30 23:10 114 1 gusting 2 26.1
2014-Oct-30 23:00 109 2 gusting 4 26.1
2014-Oct-30 22:54 157 3 gusting 6 26.7
2014-Oct-30 22:50 069 3 gusting 5 26.7
2014-Oct-30 22:40 062 0 gusting 5 26.7
2014-Oct-30 22:30 081 4 gusting 6 26.7
2014-Oct-30 22:20 082 2 gusting 4 26.7
2014-Oct-30 22:10 088 2 gusting 5 26.7
2014-Oct-30 22:00 101 3 gusting 5 26.7
2014-Oct-30 21:50 070 4 gusting 6 27.2
2014-Oct-30 21:40 049 3 gusting 6 27.2
2014-Oct-30 21:30 067 2 gusting 6 27.2
2014-Oct-30 21:20 037 1 gusting 6 27.2
2014-Oct-30 21:10 082 5 gusting 7 27.8
2014-Oct-30 21:00 039 4 gusting 7 27.8
2014-Oct-30 20:50 039 5 gusting 7 27.8
2014-Oct-30 20:40 010 3 gusting 7 28.3
2014-Oct-30 20:30 075 6 gusting 8 28.3
2014-Oct-30 20:20 045 4 gusting 7 28.9
2014-Oct-30 20:10 030 4 gusting 6 28.9
2014-Oct-30 20:00 037 2 gusting 6 28.9
2014-Oct-30 19:50 105 6 gusting 6 28.9
2014-Oct-30 19:40 083 4 gusting 6 28.3
2014-Oct-30 19:30 103 6 gusting 7 28.3
2014-Oct-30 19:20 081 6 gusting 6 28.3
2014-Oct-30 18:25 036 5 gusting 5 27.8
2014-Oct-30 18:20 067 3 gusting 7 28.3
2014-Oct-30 18:10 051 2 gusting 6 28.3
2014-Oct-30 18:00 111 6 gusting 6 27.8
2014-Oct-30 17:30 089 5 gusting 6 28.3
2014-Oct-30 17:20 082 3 gusting 6 28.3
2014-Oct-30 17:10 062 5 gusting 6 27.8
2014-Oct-30 17:00 108 4 gusting 6 27.8
2014-Oct-30 16:50 109 2 gusting 6 27.8
2014-Oct-30 16:40 076 4 gusting 6 27.2
2014-Oct-30 16:30 028 5 gusting 7 27.2
2014-Oct-30 16:20 077 3 gusting 11 27.2
2014-Oct-30 16:10 038 8 gusting 12 27.2
2014-Oct-30 16:00 038 4 gusting 7 27.2
2014-Oct-30 15:50 061 6 gusting 8 27.2
2014-Oct-30 15:40 017 6 gusting 12 27.8
2014-Oct-30 15:30 067 4 gusting 6 27.8
2014-Oct-30 15:20 086 4 gusting 6 27.8
2014-Oct-30 15:10 062 4 gusting 6 27.8
2014-Oct-30 15:00 068 5 gusting 12 27.2
2014-Oct-30 14:50 086 3 gusting 6 27.8
2014-Oct-30 14:40 065 4 gusting 6 27.8
2014-Oct-30 14:30 048 6 gusting 7 27.8
2014-Oct-30 14:20 035 4 gusting 7 27.2
2014-Oct-30 14:10 076 5 gusting 6 27.2
2014-Oct-30 14:00 005 0 gusting 5 27.2
2014-Oct-30 13:50 084 4 gusting 5 27.2
2014-Oct-30 13:40 086 2 gusting 7 26.7
2014-Oct-30 13:30 068 2 gusting 5 26.7
2014-Oct-30 13:20 063 2 gusting 5 26.7
2014-Oct-30 13:10 091 2 gusting 7 26.7
2014-Oct-30 13:00 088 4 gusting 6 26.7
2014-Oct-30 12:50 077 4 gusting 6 26.7
2014-Oct-30 12:40 031 3 gusting 5 26.7
2014-Oct-30 12:30 078 5 gusting 6 26.7
2014-Oct-30 12:20 041 4 gusting 6 26.1
2014-Oct-30 12:10 076 6 gusting 7 26.1
2014-Oct-30 12:00 125 2 gusting 5 26.1
2014-Oct-30 11:50 051 2 gusting 2 26.1
2014-Oct-30 11:40 071 1 gusting 2 25.6
2014-Oct-30 11:30 062 1 gusting 2 25.6
2014-Oct-30 11:20 082 1 gusting 2 25.6
2014-Oct-30 11:10 076 2 gusting 2 25.6
2014-Oct-30 11:00 071 3 gusting 4 26.1
2014-Oct-30 10:50 053 2 gusting 2 26.1
2014-Oct-30 10:40 127 2 gusting 5 26.1
2014-Oct-30 10:30 056 2 gusting 4 26.1
2014-Oct-30 10:20 083 2 gusting 4 26.1
2014-Oct-30 10:10 108 4 gusting 5 26.1
2014-Oct-30 10:00 049 1 gusting 2 25.6
2014-Oct-30 09:50 072 1 gusting 2 26.1
2014-Oct-30 09:40 090 2 gusting 4 26.1
2014-Oct-30 09:30 094 1 gusting 1 26.1
2014-Oct-30 09:20 078 3 gusting 4 26.1
2014-Oct-30 09:10 070 1 gusting 2 26.1
2014-Oct-30 09:00 092 1 gusting 2 26.1
2014-Oct-30 08:50 091 4 gusting 5 26.1
2014-Oct-30 08:40 063 1 gusting 6 26.1
2014-Oct-30 08:30 041 2 gusting 2 26.1
2014-Oct-30 08:20 042 1 gusting 2 26.1
2014-Oct-30 08:10 081 2 gusting 4 26.1
2014-Oct-30 08:00 063 2 gusting 4 25.6
2014-Oct-30 07:50 059 2 gusting 4 25.6
2014-Oct-30 07:40 032 2 gusting 4 25.6
2014-Oct-30 07:30 074 1 gusting 2 25.6
2014-Oct-30 07:20 020 1 gusting 1 25.6
2014-Oct-30 07:10 100 1 gusting 1 25.6
2014-Oct-30 07:00 075 0 gusting 0 25.6
2014-Oct-30 06:50 047 2 gusting 4 25.6
2014-Oct-30 06:40 096 1 gusting 1 25.6
2014-Oct-30 06:30 082 1 gusting 2 25.6
2014-Oct-30 06:20 104 1 gusting 2 25.6
2014-Oct-30 06:10 067 1 gusting 4 25.6
2014-Oct-30 06:00 112 1 gusting 2 25.6
2014-Oct-30 05:50 108 1 gusting 1 25.6
2014-Oct-30 05:40 103 2 gusting 2 25.6
2014-Oct-30 05:30 100 2 gusting 2 25.6
2014-Oct-30 05:20 115 1 gusting 1 25.6
2014-Oct-30 05:10 116 2 gusting 2 25.6
2014-Oct-30 05:00 085 1 gusting 2 25.6
2014-Oct-30 04:50 099 1 gusting 1 25.6
2014-Oct-30 04:40 088 2 gusting 4 25.6
2014-Oct-30 04:30 088 1 gusting 1 25.6
2014-Oct-30 04:20 073 0 gusting 1 25.6
2014-Oct-30 04:10 113 1 gusting 1 26.1
2014-Oct-30 04:00 091 1 gusting 1 25.6
2014-Oct-30 03:50 079 1 gusting 2 26.1
2014-Oct-30 03:40 097 1 gusting 2 26.1
2014-Oct-30 03:30 096 1 gusting 2 26.1
2014-Oct-30 03:20 091 0 gusting 4 26.1
2014-Oct-30 03:10 077 1 gusting 4 26.1
2014-Oct-30 03:00 090 1 gusting 4 26.1